Current weather by "City, St" or "zip code"  
 
Advertise Here

Current Conditions: Washington, IA

Light Unknown Precip


36.0 F

Last Updated on Nov 23 2020, 7:55 pm CST
Humidity: 87%
Wind Speed: S 6.9 mph
Barometer 30.23 in
Dewpoint: 32.0 F
Visibility: 10.00 mi
Precip: --
Heat Index: NA
Wind Chill: 30 F
Current conditions at:

Washington, IA (KAWG)

Lat: 41.28333 Lon: 91.66667

Local Radar Image active severe weather and emergency alerts image image weather storm and storm spotter reports image weather observation monitoring service image
Local
Radar
Active
Alerts
Storm Reports Obs
Monitoring

Sign-up For Email & Text Message Weather Alert Notification Services


Advertise Here

Observation History for Washington, IA


Time Wind
(mph)
Vis
(mi)
Weather Precip (in) Temperature (F) Relative
Humidity
Wind
Chill
(F)
Heat
Index
(F)
Pressure
Air Dwpt altimeter
(in)
sea level
(mb)
Rmks
7:55 pm CST S 6.9 10.00 Light Unknown Precip -- 36.0 32.0 87% 30 NA 30.23 M
6:55 pm CST S 6.9 10.00 Overcast -- 36.0 33.8 93% 30 NA 30.24 M
5:55 pm CST SW 6.9 10.00 Overcast -- 37.0 32.0 81% 32 NA 30.26 M
4:35 pm CST SW 3.5 10.00 Fair -- 37.0 30.2 75% NA NA 30.28 M
2:15 pm CST N 0.0 10.00 Fair -- 37.0 30.2 75% NA NA 30.28 M
1:55 pm CST N 0.0 10.00 Fair -- 37.0 30.2 75% NA NA 30.28 M
12:55 pm CST N 0.0 10.00 Fair -- 37.0 30.2 75% NA NA 30.30 M
11:55 am CST NE 4.6 10.00 Fair -- 37.0 30.2 75% 33 NA 30.31 M
10:55 am CST N 0.0 10.00 Fair -- 36.0 30.2 81% NA NA 30.34 M
9:55 am CST N 0.0 10.00 Fair -- 34.0 30.2 87% NA NA 30.35 M
8:55 am CST NW 6.9 10.00 Fair -- 30.0 28.4 93% 23 NA 30.35 M
7:55 am CST NW 4.6 10.00 Fair -- 25.0 24.8 100% 19 NA 30.34 M
6:55 am CST W 5.8 10.00 Fair -- 23.0 23.0 100% 16 NA 30.33 M
5:55 am CST W 5.8 10.00 Fair -- 25.0 23.0 93% 18 NA 30.31 M
4:35 am CST W 6.9 10.00 Fair -- 25.0 24.8 100% 17 NA 30.31 M
3:55 am CST W 6.9 10.00 Fair -- 25.0 24.8 100% 17 NA 30.30 M
2:55 am CST NW 8.1 10.00 Fair -- 27.0 26.6 100% 19 NA 30.30 M
1:55 am CST W 8.1 10.00 Fair -- 28.0 26.6 93% 20 NA 30.28 M
12:55 am CST W 8.1 10.00 Fair -- 30.0 28.4 93% 22 NA 30.28 M
11:55 pm CST W 9.2 10.00 Fair -- 32.0 30.2 93% 24 NA 30.27 M
10:55 pm CST W 6.9 10.00 Fair -- 34.0 30.2 87% 28 NA 30.26 M
9:55 pm CST W 8.1 10.00 Fair -- 34.0 30.2 87% 27 NA 30.26 M
8:55 pm CST W 9.2 10.00 Fair -- 36.0 30.2 81% 29 NA 30.25 M

Regional Weather Observation


Iowa City Municipal Airport, IA (KIOW)

Overcast
36.0 F

Fairfield Municipal Airport, IA (KFFL)

Fog/Mist
32.0 F

Cedar Rapids Airport, IA (KCID)

Overcast
34.0 F

Muscatine, IA (KMUT)

Overcast
39.0 F

Oskaloosa, Oskaloosa Municipal Airport, IA (KOOA)

Light Snow
34.0 F

Ottumwa Regional Airport, IA (KOTM)

Light Snow Fog/Mist
32.0 F